Location: Arrien
(43.3167°N, 0.1500°W)
Time: 03:44:12
(UTC+00:00)

Cosmos 1758 - Pass Details

Date: 15 October 2021
Orbit: 540 x 560 km, 82.5° (Epoch: 02 December)

Event Time Altitude Azimuth Distance (km) Brightness Sun altitude
Rises 18:04:39 0° 187° (S) 2,707 7.0 -9.4°
Reaches altitude 10° 18:06:48 10° 187° (S) 1,815 6.1 -9.7°
Maximum altitude 18:10:47 90° 226° (SW) 552 3.3 -10.5°
Drops below altitude 10° 18:14:48 10° 8° (N) 1,819 5.9 -11.2°
Sets 18:16:58 0° 9° (N) 2,714 6.8 -11.6°
